Date,TemperatureHighF,TemperatureAvgF,TemperatureLowF,DewpointHighF,DewpointAvgF,DewpointLowF,HumidityHigh,HumidityAvg,HumidityLow,PressureMaxIn,PressureMinIn,WindSpeedMaxMPH,WindSpeedAvgMPH,GustSpeedMaxMPH,PrecipitationSumIn
2013-1-1,31.8,18.3,9.1,13.9,2.1,-3.4,66,49,35,30.39,30.24,8,1,8,0.00
2013-1-2,30.2,17.8,7.2,5.7,-0.2,-8.4,50,45,33,30.45,30.36,8,2,8,0.00
2013-1-3,27.1,12.6,6.3,9.5,-3.5,-9.2,61,48,39,30.39,30.21,4,0,4,0.00
2013-1-4,27.9,15.6,3.9,9.3,-0.3,-10.2,63,49,41,30.30,30.21,6,0,6,0.00
2013-1-5,34.3,21.5,9.7,17.8,6.6,-1.8,66,53,39,30.27,30.12,7,0,7,0.00
2013-1-6,35.1,25.8,17.8,19.3,11.8,6.3,66,56,42,30.12,29.97,9,0,9,0.00
2013-1-7,40.5,34.7,25.7,21.3,15.0,8.1,53,44,39,30.03,29.83,15,4,15,0.00
2013-1-8,45.1,40.6,37.0,21.8,16.1,12.3,46,37,29,30.09,29.85,15,4,15,0.00
2013-1-9,47.1,41.5,33.1,29.0,21.8,15.9,77,47,29,30.00,29.68,16,4,16,0.12
2013-1-10,33.3,29.6,20.5,27.4,23.0,10.2,80,76,64,29.80,29.65,5,0,13,0.00
2013-1-11,22.3,15.1,3.2,10.2,0.4,-11.6,64,52,43,30.12,29.80,11,0,11,0.00
2013-1-12,18.5,3.2,-6.3,0.6,-12.6,-22.1,49,47,44,30.18,30.09,10,2,10,0.00
2013-1-13,23.5,5.2,-4.4,3.8,-12.2,-20.3,46,44,37,30.24,30.15,6,0,6,0.04
2013-1-14,23.9,11.8,-3.5,4.1,-4.3,-19.9,56,48,42,30.27,30.15,14,2,14,0.00
2013-1-15,32.2,18.8,8.6,14.6,4.8,-3.9,64,54,41,30.42,30.27,6,0,6,0.04
2013-1-16,33.4,14.9,6.3,12.3,1.6,-3.7,64,56,40,30.42,30.36,6,0,6,0.00
2013-1-17,35.1,16.1,5.5,13.8,2.0,-7.1,67,54,40,30.45,30.24,8,0,8,0.00
2013-1-18,57.9,32.6,12.0,18.4,8.1,-0.1,67,39,17,30.24,30.12,11,2,11,0.00
2013-1-19,42.6,26.3,16.7,14.5,6.7,1.9,54,44,29,30.30,30.21,6,1,6,0.00
2013-1-20,41.9,25.5,17.2,13.1,6.6,1.0,59,45,30,30.33,30.27,8,1,8,0.00
2013-1-21,38.5,22.3,12.2,14.4,6.5,1.6,66,51,34,30.27,30.15,9,1,9,0.00
2013-1-22,34.3,18.8,7.2,15.8,4.6,-2.8,67,54,37,30.21,30.09,4,0,4,0.00
2013-1-23,40.8,24.8,14.2,25.1,9.4,2.5,63,52,36,30.12,29.94,8,1,8,0.00
2013-1-24,51.3,38.9,26.1,27.9,18.7,10.7,65,46,26,30.15,29.97,16,2,16,0.00
2013-1-25,47.8,40.1,30.6,26.4,20.8,14.4,60,46,37,30.15,29.94,15,4,15,0.00
2013-1-26,42.8,36.1,30.2,27.5,23.2,18.8,69,59,47,29.94,29.83,10,1,10,0.00
2013-1-27,39.7,29.7,21.4,28.3,15.5,6.9,73,57,33,29.91,29.85,8,1,8,0.00
2013-1-28,42.8,30.2,24.3,14.1,10.2,6.4,55,43,29,29.91,29.80,13,4,13,0.00
2013-1-29,38.5,29.0,26.1,24.0,16.4,12.6,72,59,42,30.09,29.80,9,0,9,0.12
2013-1-30,45.9,36.1,28.6,21.9,18.6,15.7,65,49,33,30.12,30.00,11,2,11,0.08
2013-1-31,52.0,39.4,34.5,25.9,19.8,16.8,56,46,32,30.18,30.12,8,1,8,0.00
2013-2-1,53.6,38.5,26.6,24.6,16.6,7.6,64,42,26,30.36,30.09,10,2,10,0.00
2013-2-2,56.3,34.0,24.6,20.8,13.9,9.1,59,45,22,30.42,30.21,11,2,11,0.00
2013-2-3,57.0,34.1,20.3,22.5,13.8,7.7,70,45,20,30.24,30.03,9,1,9,0.00
2013-2-4,45.1,37.7,29.5,20.4,16.2,13.2,58,42,33,30.06,30.00,15,2,15,0.00
2013-2-5,55.2,39.8,30.2,26.9,19.1,10.3,70,45,25,30.00,29.80,14,2,14,0.00
2013-2-6,47.3,33.8,22.6,29.4,17.0,7.2,71,51,29,30.06,29.94,15,2,15,0.00
2013-2-7,41.5,29.8,22.6,16.8,13.5,9.7,61,51,31,30.06,29.88,6,1,6,0.00
2013-2-8,42.8,32.1,22.8,21.6,15.7,11.7,66,52,35,30.00,29.94,9,1,9,0.00
2013-2-9,45.3,32.0,28.0,19.4,13.2,7.2,68,47,28,30.06,29.91,8,1,8,0.00
2013-2-10,43.3,29.1,19.0,23.2,12.5,3.1,69,51,28,30.18,30.06,7,1,7,0.00
2013-2-11,46.6,28.8,16.7,14.8,7.9,0.9,55,42,27,30.15,30.09,11,2,11,0.00
2013-2-12,44.8,35.4,22.6,19.5,15.0,8.4,56,44,31,30.21,30.12,10,1,10,0.00
2013-2-13,45.7,40.1,35.6,22.0,15.9,8.1,51,38,29,30.21,30.06,20,3,20,0.00
2013-2-14,48.4,36.8,29.8,15.8,11.9,7.0,51,36,27,30.39,30.21,11,1,11,0.00
2013-2-15,55.8,37.1,25.5,24.1,15.7,11.4,60,43,25,30.42,30.27,9,1,9,0.00
2013-2-16,60.8,37.9,21.4,28.6,18.8,13.1,74,50,22,30.27,29.85,12,2,12,0.04
2013-2-17,43.3,33.6,28.2,25.4,16.1,8.6,75,50,30,30.06,29.88,10,1,10,0.00
2013-2-18,47.7,32.8,19.9,14.3,8.7,3.0,60,38,22,30.06,29.83,13,2,13,0.00
2013-2-19,50.4,34.1,23.9,21.0,12.6,4.7,64,43,21,29.83,29.68,10,1,10,0.00
2013-2-20,42.4,32.1,21.9,27.1,15.9,1.8,74,54,28,29.94,29.80,9,1,9,0.04
2013-2-21,41.5,28.0,13.3,13.5,6.2,-0.9,55,40,26,30.03,29.94,14,3,14,0.00
2013-2-22,46.0,35.4,26.6,19.5,13.6,9.9,54,41,28,30.00,29.71,17,5,17,0.00
2013-2-23,41.7,32.7,23.7,20.3,9.7,0.9,60,39,26,30.15,29.71,19,3,19,0.00
2013-2-24,45.9,31.0,22.6,12.9,6.9,1.7,47,36,23,30.21,30.12,12,2,12,0.00
2013-2-25,43.2,30.9,21.2,19.0,11.5,4.7,60,45,29,30.12,29.91,14,3,14,0.00
2013-2-26,45.7,31.6,20.7,16.4,8.6,-0.4,59,39,25,30.24,30.03,10,2,10,0.00
2013-2-27,52.2,32.8,21.6,13.4,6.5,1.2,47,34,19,30.24,30.18,17,3,17,0.00
2013-2-28,49.6,37.3,27.9,23.7,15.8,7.2,55,42,29,30.33,30.21,11,3,11,0.00
2013-3-1,63.3,44.3,31.6,28.2,22.6,17.7,64,44,24,30.36,30.33,16,2,16,0.00
2013-3-2,64.6,45.3,29.7,31.8,22.1,17.0,70,43,18,30.33,29.97,11,2,11,0.00
2013-3-3,43.5,36.8,29.7,32.0,15.1,1.7,76,45,23,30.09,29.85,20,3,20,0.08
2013-3-4,45.1,29.8,17.8,18.7,8.3,0.3,69,42,22,30.27,30.09,11,1,11,0.08
2013-3-5,48.4,28.9,14.4,15.3,8.3,2.3,61,43,24,30.15,29.91,8,1,8,0.00
2013-3-6,52.5,35.1,25.9,26.9,17.5,9.7,69,50,31,29.91,29.74,19,1,19,0.00
2013-3-7,53.4,39.4,24.4,21.3,12.7,3.9,54,35,18,30.06,29.85,10,3,11,0.00
2013-3-8,48.7,32.1,18.0,19.7,10.0,5.3,63,42,22,30.06,29.94,10,2,10,0.00
2013-3-9,54.9,34.6,20.1,18.7,10.6,6.2,56,39,20,30.36,30.06,13,2,13,0.00
2013-3-10,59.4,38.9,21.2,17.3,11.7,6.3,57,36,17,30.39,30.18,15,3,15,0.00
2013-3-11,55.0,40.6,28.8,24.0,12.5,1.0,64,34,18,30.24,30.18,15,3,15,0.00
2013-3-12,59.7,44.4,28.4,24.0,16.5,4.1,41,33,24,30.24,30.12,15,4,15,0.00
2013-3-13,69.8,50.6,37.0,24.6,19.4,15.3,45,31,15,30.24,30.18,16,2,16,0.00
2013-3-14,72.9,50.0,32.7,27.0,18.7,11.6,54,32,14,30.21,30.06,14,2,14,0.00
2013-3-15,62.4,49.8,36.0,24.9,17.5,11.2,44,28,19,30.15,30.06,14,3,14,0.00
2013-3-16,58.1,43.3,30.6,28.5,18.7,13.5,71,39,22,30.12,29.80,15,2,15,0.00
2013-3-17,41.7,34.0,27.7,28.7,13.0,3.8,75,44,30,30.06,29.74,23,4,23,0.04
2013-3-18,45.9,32.9,27.7,21.3,10.9,3.6,71,41,20,30.12,30.00,18,5,18,0.00
2013-3-19,55.8,34.2,15.1,20.8,11.6,3.9,70,42,17,30.30,30.03,12,2,12,0.04
2013-3-20,58.3,40.0,25.9,30.0,21.3,10.7,73,49,27,30.03,29.65,17,4,17,0.08
2013-3-21,41.7,32.8,23.9,26.1,11.7,1.1,74,43,23,30.03,29.85,20,4,20,0.08
2013-3-22,42.4,28.2,19.6,15.6,10.4,5.8,60,48,29,30.21,30.03,12,2,12,0.08
2013-3-23,44.6,26.2,12.9,17.0,8.3,2.4,67,49,23,30.30,30.21,11,2,11,0.08
2013-3-24,46.4,29.5,16.9,12.7,5.8,-3.1,60,39,19,30.36,30.21,8,1,8,0.00
2013-3-25,56.5,33.5,14.0,13.3,6.8,0.4,57,35,17,30.21,30.06,9,1,9,0.00
2013-3-26,63.1,41.2,23.7,22.3,13.9,7.0,56,36,16,30.06,30.00,8,1,9,0.00
2013-3-27,65.8,41.7,25.9,27.9,17.9,9.6,65,41,18,30.09,30.00,8,1,8,0.00
2013-3-28,65.3,44.4,27.9,31.1,24.6,19.7,73,49,23,30.18,30.09,16,2,16,0.00
2013-3-29,59.7,44.5,33.1,32.3,25.8,21.3,69,50,26,30.27,30.18,10,1,10,0.00
2013-3-30,67.1,47.4,31.1,31.5,20.9,10.9,68,39,17,30.33,30.18,9,2,9,0.00
2013-3-31,67.6,45.7,24.8,28.7,17.4,12.9,65,37,15,30.21,30.03,8,1,8,0.00
2013-4-1,69.1,47.6,27.9,30.2,20.6,15.6,67,38,17,30.12,30.00,9,1,9,0.00
2013-4-2,71.2,50.5,30.2,30.5,21.9,15.9,69,36,17,30.15,30.06,13,2,13,0.00
2013-4-3,72.3,51.4,36.7,32.8,23.3,18.6,58,36,16,30.21,30.12,12,2,12,0.00
2013-4-4,73.2,51.2,34.2,35.1,27.1,22.5,67,42,19,30.15,29.91,18,2,18,0.00
2013-4-5,62.6,47.9,35.1,36.3,27.8,21.4,65,47,23,30.03,29.91,15,3,15,0.00
2013-4-6,58.1,45.6,38.3,32.6,26.5,18.4,67,48,30,30.03,29.94,13,3,13,0.04
2013-4-7,56.5,42.2,32.7,41.8,24.2,14.3,73,51,26,29.97,29.74,16,2,16,0.04
2013-4-8,43.9,36.5,28.2,23.0,12.0,1.2,63,38,25,30.24,29.85,16,4,16,0.00
2013-4-9,54.0,33.7,13.8,14.3,5.9,-3.5,51,32,18,30.39,30.24,11,2,11,0.00
2013-4-10,59.0,44.3,0.0,32.7,21.0,0.0,72,40,26,30.27,29.94,16,3,16,0.00
2013-4-11,54.9,44.0,33.6,33.4,17.4,8.2,74,35,23,30.15,30.03,14,3,14,0.00
2013-4-12,62.4,42.8,23.9,21.8,13.4,8.5,58,34,16,30.15,29.77,17,3,17,0.00
2013-4-13,50.2,39.2,30.4,28.5,17.5,7.6,68,43,21,29.88,29.68,19,5,19,0.00
2013-4-14,47.3,35.8,26.1,25.4,16.7,10.7,71,48,27,29.97,29.88,13,3,13,0.00
2013-4-15,43.2,33.5,26.1,14.8,4.6,-0.9,52,30,23,30.12,29.94,15,4,15,0.00
2013-4-16,43.0,30.7,15.4,6.5,1.6,-5.6,43,29,20,30.30,30.12,14,3,14,0.00
2013-4-17,50.2,31.8,11.8,10.6,2.6,-5.4,49,30,19,30.39,30.27,10,2,10,0.00
2013-4-18,57.0,39.7,21.4,16.2,9.0,0.2,44,29,18,30.33,30.27,14,3,14,0.00
2013-4-19,61.0,47.9,37.0,25.3,19.5,11.0,47,33,24,30.27,30.00,13,2,13,0.00
2013-4-20,62.2,47.4,37.6,26.1,22.2,17.7,54,38,21,30.18,30.03,23,2,23,0.00
2013-4-21,60.6,43.6,27.3,26.5,21.2,13.5,77,44,19,30.27,30.06,19,3,19,0.00
2013-4-22,48.0,33.0,20.7,15.5,8.2,3.3,60,37,19,30.45,30.24,11,2,11,0.04
2013-4-23,56.7,37.6,19.2,16.0,10.9,5.0,58,36,18,30.42,30.24,9,2,9,0.00
2013-4-24,64.6,44.1,22.1,19.6,13.1,5.7,58,32,16,30.36,30.09,13,2,13,0.00
2013-4-25,70.2,50.7,32.2,23.2,15.4,9.0,46,27,14,30.18,30.03,15,3,15,0.00
2013-4-26,76.1,54.4,32.0,25.8,19.7,13.1,51,28,14,30.27,30.18,15,3,15,0.00
2013-4-27,74.1,58.8,41.2,26.0,21.2,14.5,46,26,13,30.27,30.09,24,4,24,0.00
2013-4-28,66.2,55.1,48.0,26.1,20.6,12.5,37,26,18,30.18,30.00,18,4,18,0.00
2013-4-29,52.2,44.4,32.4,37.7,22.1,11.6,71,44,21,30.03,29.83,25,4,25,0.08
2013-4-30,51.3,37.3,24.4,19.0,11.0,4.7,62,35,19,30.36,30.00,12,3,12,0.00
2013-5-1,58.8,39.9,24.4,27.8,14.4,5.7,72,41,17,30.62,30.36,9,1,9,0.00
2013-5-2,73.0,46.6,22.5,20.9,13.9,7.6,57,31,14,30.65,30.33,15,2,15,0.00
2013-5-3,63.0,48.7,41.2,37.0,22.6,13.4,73,38,24,30.36,30.30,8,1,8,0.04
2013-5-4,59.5,51.4,43.3,36.5,25.2,20.5,74,38,25,30.33,30.21,13,2,13,0.00
2013-5-5,74.5,53.1,30.6,35.2,23.7,16.7,69,36,16,30.24,30.03,10,2,10,0.00
2013-5-6,83.1,57.5,33.6,32.3,23.8,15.3,65,32,13,30.12,29.94,9,1,9,0.00
2013-5-7,81.5,60.7,36.3,30.9,24.1,17.7,54,28,14,30.12,29.97,15,3,15,0.00
2013-5-8,84.7,61.8,38.3,32.8,25.4,17.4,56,28,13,30.21,30.12,17,2,17,0.00
2013-5-9,82.8,59.9,39.4,43.4,27.9,22.6,57,33,14,30.27,30.18,9,1,9,0.00
2013-5-10,88.2,63.4,41.2,37.1,28.6,19.3,64,32,13,30.36,30.24,8,1,8,0.00
2013-5-11,90.7,65.2,42.4,34.1,28.3,22.6,53,29,12,30.36,30.21,13,2,13,0.00
2013-5-12,96.4,71.0,49.1,35.6,30.3,24.2,46,25,11,30.27,30.12,12,2,15,0.00
2013-5-13,90.1,67.3,47.5,42.9,33.4,23.7,63,33,12,30.18,29.88,20,4,20,0.00
2013-5-14,75.9,59.8,43.2,26.0,21.3,15.0,45,24,13,30.21,30.09,13,2,13,0.00
2013-5-15,71.2,53.4,34.0,31.5,23.4,17.3,59,34,17,30.21,30.03,15,1,15,0.00
2013-5-16,66.0,52.1,40.6,41.6,31.3,24.3,73,48,25,30.09,30.03,6,0,6,0.00
2013-5-17,49.8,46.5,43.3,40.3,32.9,28.2,71,59,46,30.06,30.03,4,0,4,0.08
2013-5-19,59.4,54.9,50.4,30.5,27.1,23.2,46,35,25,30.36,30.33,5,0,5,0.08
2013-5-20,77.0,58.0,37.2,39.3,28.1,20.1,67,36,15,30.39,30.18,8,1,8,0.08
2013-5-21,81.0,60.2,38.7,37.6,28.2,22.3,66,35,14,30.18,29.83,13,2,13,0.08
2013-5-22,68.2,50.4,40.8,46.1,34.2,25.9,74,56,24,30.15,29.85,9,0,9,0.12
2013-5-23,63.5,49.8,38.5,30.5,23.1,15.3,67,39,19,30.15,30.06,8,1,8,0.08
2013-5-24,67.1,52.1,34.5,26.5,22.1,18.5,59,33,17,30.24,30.09,21,3,21,0.08
2013-5-25,71.4,51.2,32.9,30.2,23.6,17.4,63,37,19,30.21,30.15,7,1,7,0.08
2013-5-26,70.2,51.1,33.1,38.4,27.6,19.5,70,43,22,30.21,30.09,12,2,12,0.08
2013-5-27,74.1,56.3,44.4,42.9,32.8,25.2,73,46,18,30.18,30.03,12,1,12,0.08
2013-5-28,66.2,53.8,45.1,47.1,36.8,30.0,74,54,33,30.06,30.00,12,0,12,0.39
2013-5-29,73.4,55.8,37.0,40.9,28.3,21.2,69,39,16,30.09,29.91,15,1,15,0.08
2013-5-30,66.6,52.7,41.9,32.0,24.5,18.3,56,35,21,30.30,30.09,12,1,12,0.08
2013-5-31,66.4,51.8,36.5,30.4,22.1,18.5,55,34,17,30.47,30.30,8,1,8,0.08
2013-6-1,77.0,55.8,31.8,31.1,22.8,18.5,62,32,13,30.50,30.24,8,1,8,0.08
2013-6-2,62.1,50.6,43.5,43.3,32.0,23.2,73,50,28,30.27,30.12,10,2,10,0.08
2013-6-3,73.9,54.5,43.2,48.4,33.5,25.9,75,50,19,30.33,30.18,9,1,9,0.08
2013-6-4,73.8,56.3,42.4,40.2,31.1,25.2,67,42,21,30.42,30.33,6,1,6,0.08
2013-6-5,86.9,63.9,38.1,39.3,28.5,18.1,67,32,13,30.39,30.24,10,1,10,0.08
2013-6-6,90.5,68.5,48.2,36.9,29.6,21.6,48,26,12,30.36,30.21,8,1,8,0.08
2013-6-7,90.1,68.9,50.4,41.6,31.9,25.3,50,29,12,30.27,30.15,15,2,15,0.00
2013-6-8,87.8,70.5,50.5,30.9,25.5,16.2,37,20,12,30.33,30.21,14,2,14,0.00
2013-6-9,89.2,68.2,46.6,34.4,27.8,18.5,49,26,13,30.30,30.09,19,2,19,0.00
2013-6-10,84.6,64.0,41.0,46.2,27.2,21.9,60,28,13,30.21,30.03,8,0,8,0.00
2013-6-11,84.9,66.0,46.2,35.7,27.5,23.1,49,26,13,30.27,30.09,15,1,15,0.00
2013-6-12,73.8,61.4,46.2,36.2,30.1,24.2,56,32,22,30.30,30.21,8,1,8,0.00
2013-6-13,68.7,53.1,41.4,49.9,37.9,26.2,77,59,25,30.36,30.24,8,1,8,0.35
2013-6-14,69.4,53.7,41.7,37.2,29.4,22.1,69,43,20,30.42,30.33,12,1,12,0.00
2013-6-15,83.5,59.5,35.1,37.9,26.7,20.0,67,34,13,30.42,21.41,7,1,7,0.00
2013-6-16,84.9,63.8,40.3,33.8,27.4,22.4,52,28,13,30.00,21.41,5,0,5,0.00
2013-6-17,93.0,68.2,45.5,37.1,31.3,27.0,52,29,12,30.00,0.00,5,0,5,0.00
2013-6-18,86.4,66.9,47.5,39.2,33.6,29.6,55,31,16,30.77,0.00,8,1,8,0.00
2013-6-19,65.1,55.3,48.7,45.5,38.0,30.5,73,54,34,29.82,29.67,10,1,10,0.24
2013-6-20,70.7,54.4,47.5,37.0,27.9,24.3,60,37,22,29.99,29.79,14,2,14,0.00
2013-6-21,72.7,55.6,38.5,42.2,28.9,23.2,68,40,19,30.02,29.93,17,1,17,0.00
2013-6-22,75.4,57.8,42.6,43.5,29.5,20.8,67,37,18,30.02,29.93,8,1,8,0.00
2013-6-23,81.1,61.0,37.9,40.1,29.6,24.0,65,35,14,29.96,29.70,6,0,6,0.00
2013-6-24,77.7,61.7,54.0,50.9,40.4,32.9,71,47,23,29.73,29.64,16,0,16,0.08
2013-6-25,77.9,63.3,52.0,48.1,38.8,29.7,72,45,20,29.91,29.73,17,1,17,0.04
2013-6-26,76.6,61.9,51.6,49.7,40.6,32.9,71,48,24,30.11,29.91,8,1,8,0.00
2013-6-27,78.3,71.0,56.7,47.1,41.4,38.7,52,35,26,30.17,30.11,5,1,5,0.00
2013-7-1,100.4,79.2,65.8,42.7,35.4,28.6,35,22,10,30.05,29.99,4,0,4,0.00
2013-7-2,100.6,78.2,58.5,49.3,40.4,32.7,48,28,10,30.11,29.96,8,1,8,0.00
2013-7-3,99.3,80.2,61.2,47.1,38.8,27.0,50,27,10,30.02,29.91,13,2,13,0.00
2013-7-4,97.2,75.3,56.8,41.1,35.2,23.1,51,27,11,29.96,29.79,6,1,9,0.00
2013-7-5,92.3,72.1,50.9,38.0,29.8,20.9,46,23,12,29.88,29.73,11,1,11,0.00
2013-7-6,87.6,68.7,47.5,37.5,29.7,21.0,50,26,13,29.93,29.76,7,0,7,0.00
2013-7-7,91.0,70.0,46.6,42.3,30.9,24.8,49,26,12,29.91,29.79,6,0,6,0.00
2013-7-8,90.1,70.5,52.2,39.5,33.0,24.4,48,27,12,30.08,29.85,13,1,13,0.00
2013-7-9,90.5,69.6,48.4,42.9,32.7,26.0,54,29,12,30.14,30.02,5,0,5,0.00
2013-7-10,102.7,74.1,48.9,37.2,31.1,25.1,46,23,9,30.05,29.79,15,1,15,0.00
2013-7-11,89.8,71.8,56.3,39.3,33.7,24.6,47,27,12,29.91,29.79,20,2,20,0.00
2013-7-12,91.0,67.3,47.1,44.4,33.9,26.3,63,34,12,29.91,29.79,16,1,16,0.00
2013-7-13,84.2,67.7,47.8,35.7,27.8,14.4,49,25,13,30.05,29.88,7,1,7,0.00
2013-7-14,90.1,67.2,44.4,32.5,27.3,21.5,44,25,12,30.11,29.93,7,1,7,0.00
2013-7-15,99.3,74.7,49.3,37.1,30.6,20.7,46,23,10,29.96,29.85,14,1,14,0.00
2013-7-16,92.7,70.3,50.5,44.7,35.0,21.7,46,29,14,30.05,29.91,14,1,14,0.00
2013-7-17,99.0,78.2,58.1,51.1,40.5,30.3,57,30,11,30.08,29.93,12,1,12,0.00
2013-7-18,96.3,75.1,52.9,42.6,32.8,23.1,49,25,11,30.14,30.02,8,1,8,0.00
2013-7-19,95.9,72.0,50.0,33.0,27.7,19.8,40,22,11,30.11,29.93,8,1,8,0.00
2013-7-20,98.1,74.2,49.8,35.4,27.8,17.9,38,20,11,29.99,29.85,9,1,9,0.00
2013-7-21,99.0,74.1,48.7,34.9,26.5,15.5,38,19,10,29.93,29.82,10,1,10,0.00
2013-7-22,96.8,74.1,48.7,34.1,26.5,16.2,37,19,11,29.96,29.85,13,2,13,0.00
2013-7-23,97.0,73.7,49.5,33.4,26.6,15.3,36,19,11,30.08,29.96,6,1,6,0.00
2013-7-24,98.1,74.5,50.2,34.7,28.8,22.6,39,21,11,30.02,29.91,5,0,5,0.00
2013-7-25,98.2,75.0,51.4,34.7,27.4,20.1,34,19,11,30.08,29.96,6,1,6,0.00
2013-7-26,95.5,68.6,49.5,34.5,27.2,20.4,38,23,11,30.11,29.99,14,1,14,0.00
2013-7-27,96.8,74.7,55.9,36.2,28.5,19.2,35,20,11,29.99,29.85,13,1,13,0.00
2013-7-28,91.4,70.9,48.4,33.9,25.9,16.8,38,20,12,29.91,29.79,8,1,8,0.00
2013-7-29,90.7,67.4,43.7,32.2,25.0,16.1,43,22,11,29.93,29.85,8,1,8,0.00
2013-7-30,85.3,67.7,52.3,31.0,25.0,18.3,32,21,13,30.05,29.93,6,0,6,0.00
2013-7-31,78.4,70.0,61.3,31.9,27.8,24.1,29,21,15,29.96,29.96,4,0,4,0.00
2013-8-1,61.3,59.0,55.4,51.5,43.0,34.3,71,57,39,30.02,29.93,11,1,11,0.08
2013-8-2,79.3,61.3,46.4,48.5,36.5,29.3,73,44,17,30.05,29.91,10,1,10,0.04
2013-8-3,81.9,62.9,43.3,47.1,35.2,30.8,71,40,19,30.08,29.99,6,0,6,0.04
2013-8-4,90.0,67.6,45.9,42.6,32.6,20.1,65,33,12,30.05,29.93,7,0,7,0.04
2013-8-5,90.5,67.6,50.0,37.5,30.6,23.2,46,28,12,30.02,29.88,8,0,8,0.04
2013-8-6,91.6,69.1,49.3,37.2,32.1,27.2,50,29,12,30.02,29.93,8,1,8,0.00
2013-8-7,95.9,71.1,47.5,44.5,31.8,27.0,51,27,11,29.99,29.88,6,0,6,0.00
2013-8-8,92.5,70.2,48.6,42.7,29.2,24.7,43,24,12,29.99,29.88,6,1,6,0.00
2013-8-9,90.1,68.9,55.6,45.7,37.9,29.8,57,35,15,30.02,29.88,22,1,22,0.12
2013-8-10,90.3,68.4,48.7,45.0,36.8,26.0,68,37,14,30.02,29.91,15,1,15,0.00
2013-8-11,84.6,66.0,51.8,41.7,34.7,29.1,50,33,18,30.02,29.93,9,0,9,0.00
2013-8-12,88.7,67.8,49.8,39.5,32.5,24.7,54,30,13,30.05,29.93,8,1,8,0.00
2013-8-13,88.3,70.6,54.3,38.2,32.3,28.1,44,27,13,30.11,29.99,6,1,6,0.00
2013-8-14,92.5,68.9,48.7,36.0,31.6,24.9,50,28,12,30.05,29.93,6,0,6,0.00
2013-8-15,101.7,70.6,51.3,35.6,30.9,26.7,40,26,10,29.99,29.88,11,1,13,0.00
2013-8-16,96.1,78.7,63.0,35.2,31.4,25.1,33,19,11,29.99,29.91,6,1,6,0.00
2013-8-17,94.5,73.1,52.3,39.4,33.5,28.1,53,27,11,30.08,29.91,6,0,6,0.00
2013-8-18,96.8,74.3,53.2,38.8,32.3,22.6,48,24,11,30.05,29.96,10,1,10,0.00
2013-8-19,98.1,72.8,49.3,39.0,30.2,16.9,50,24,11,30.05,29.93,15,1,15,0.00
2013-8-20,93.7,70.8,50.2,35.6,28.8,18.5,46,24,11,30.02,29.91,9,1,9,0.00
2013-8-21,88.9,66.2,46.4,31.7,26.0,20.3,42,24,13,30.08,29.96,5,1,5,0.00
2013-8-22,87.6,68.2,51.6,34.5,28.7,22.6,38,24,13,30.02,29.85,13,0,13,0.00
2013-8-23,93.4,72.9,55.9,44.7,34.6,26.9,53,27,11,29.93,29.76,13,1,13,0.00
2013-8-24,92.1,70.6,51.1,41.0,33.3,23.5,56,29,12,29.93,29.79,18,1,18,0.00
2013-8-25,95.7,71.1,59.4,41.0,33.1,26.3,50,27,11,29.96,29.79,31,1,31,0.00
2013-8-26,87.3,67.3,48.9,51.5,37.7,29.8,70,39,16,30.02,29.88,6,0,6,0.00
2013-8-27,90.7,67.1,47.5,42.3,32.3,27.2,51,30,12,29.99,29.88,10,1,10,0.00
2013-8-28,88.0,66.6,53.1,50.6,38.5,33.7,66,38,18,30.02,29.91,13,2,13,0.00
2013-8-29,93.7,68.8,52.2,59.0,41.3,28.1,72,42,13,30.05,29.88,24,0,24,0.04
2013-8-30,88.7,67.9,48.7,52.6,37.2,26.6,72,39,13,30.08,29.99,10,1,10,0.00
2013-8-31,89.4,67.5,47.5,39.7,32.4,26.1,56,31,13,30.11,29.96,5,0,5,0.00
2013-9-1,96.1,70.0,48.2,36.0,31.2,27.4,50,27,11,29.99,29.85,5,1,5,0.00
2013-9-2,87.1,69.3,53.1,35.6,30.6,26.1,41,25,13,29.96,29.88,6,0,6,0.00
2013-9-3,81.7,67.9,57.6,45.5,38.7,32.8,47,35,20,30.05,29.96,8,0,8,0.00
2013-9-4,96.1,72.3,53.4,49.7,38.3,28.1,65,34,11,30.08,29.96,5,0,5,0.00
2013-9-5,85.5,67.2,57.7,54.4,43.8,36.2,73,46,21,30.05,29.96,9,1,9,0.08
2013-9-6,82.8,66.8,52.3,60.8,45.5,36.3,78,52,22,30.02,29.93,6,0,6,0.00
2013-9-7,86.9,68.0,48.7,48.9,36.1,27.0,68,36,13,30.08,29.91,6,0,6,0.00
2013-9-8,75.6,59.5,46.8,41.5,33.4,24.9,63,39,22,29.99,29.93,10,0,10,0.00
2013-9-9,84.6,63.2,50.9,45.2,34.6,29.3,62,37,16,30.02,29.96,9,1,9,0.00
2013-9-10,89.6,64.9,44.8,42.9,33.6,27.0,67,38,13,30.08,29.96,6,1,6,0.00
2013-9-11,90.7,79.1,58.8,39.0,31.0,22.5,42,18,12,30.14,30.02,5,1,8,0.00
2013-9-12,93.0,70.1,49.1,40.8,33.1,27.8,52,29,12,30.11,29.93,10,1,10,0.00
2013-9-13,94.3,72.8,56.1,42.8,36.1,28.8,49,29,11,29.93,29.79,15,2,15,0.00
2013-9-14,87.6,69.0,54.7,42.5,35.4,25.0,53,32,14,29.99,29.88,8,1,8,0.00
2013-9-15,91.6,67.2,47.8,46.2,35.9,30.1,64,36,14,29.99,29.82,15,1,15,0.00
2013-9-16,91.8,69.4,53.2,57.1,38.6,23.1,73,40,12,29.91,29.73,13,1,13,0.00
2013-9-17,68.2,55.2,45.1,45.6,38.3,30.5,69,54,35,29.85,29.61,9,0,9,0.00
2013-9-18,69.4,56.2,47.3,32.0,26.2,21.4,47,32,22,30.05,29.73,10,1,10,0.00
2013-9-19,75.9,54.8,37.6,31.8,24.8,17.6,60,35,15,30.14,29.99,8,1,8,0.00
2013-9-20,87.1,56.2,34.5,35.1,24.5,17.3,64,35,12,30.02,29.70,8,0,8,0.00
2013-9-21,75.2,55.8,38.7,29.1,23.3,18.8,47,30,15,29.73,29.64,6,0,7,0.00
2013-9-22,66.6,53.6,47.5,49.4,38.5,29.1,75,58,35,29.73,29.67,7,1,7,0.04
2013-9-23,66.9,52.4,42.1,47.5,30.7,22.4,74,48,20,29.93,29.73,6,1,10,0.04
2013-9-24,49.3,45.2,41.4,41.7,35.6,25.4,76,69,52,29.93,29.76,6,0,6,0.20
2013-9-25,54.0,45.5,42.8,40.1,36.2,27.2,80,71,39,29.76,29.67,5,0,5,0.24
2013-9-26,54.1,46.0,41.2,35.8,25.9,18.4,77,49,27,29.96,29.76,7,0,7,0.20
2013-9-27,57.9,50.9,41.7,30.7,22.8,19.2,62,34,25,29.99,29.91,11,3,11,0.08
2013-9-28,65.7,53.3,46.0,39.3,28.7,22.7,63,40,26,29.91,29.76,15,5,15,0.08
2013-9-29,55.9,47.5,42.6,38.2,32.0,29.0,71,55,38,29.79,29.58,14,4,14,0.20
2013-9-30,62.4,48.5,39.2,35.7,26.5,17.2,68,46,21,29.91,29.49,37,3,37,0.24
2013-10-1,63.1,44.7,34.0,34.4,25.2,18.4,73,49,24,30.02,29.91,9,1,9,0.08
2013-10-2,59.7,43.8,29.5,36.5,21.9,13.6,73,46,20,30.08,29.88,6,1,6,0.08
2013-10-3,48.9,43.8,37.6,22.6,18.5,16.0,54,36,30,30.23,29.88,11,1,11,0.08
2013-10-4,60.8,46.5,30.4,26.5,16.9,10.1,57,33,19,30.38,30.29,6,1,6,0.00
2013-10-5,70.0,44.3,27.3,24.6,17.8,12.4,66,39,14,30.32,30.20,6,1,6,0.00
2013-10-6,78.4,48.1,28.6,29.3,20.5,14.8,63,37,13,30.23,29.96,8,0,8,0.00
2013-10-7,74.5,55.4,37.9,33.2,21.8,16.0,60,29,14,29.96,29.76,12,1,12,0.00
2013-10-8,60.1,47.1,37.2,27.8,21.1,17.6,51,37,24,29.91,29.82,10,1,10,0.00
2013-10-9,62.4,47.5,33.3,39.1,23.2,16.9,70,40,24,29.96,29.82,6,1,6,0.00
2013-10-10,55.6,40.5,26.4,33.2,22.2,16.6,69,50,30,29.88,29.79,5,0,5,0.00
2013-10-11,62.1,45.5,29.8,29.1,17.8,8.3,51,35,19,30.02,29.88,11,1,11,0.00
2013-10-12,54.9,39.0,28.4,24.0,17.6,12.2,62,44,26,30.02,29.93,5,0,5,0.00
2013-10-13,58.5,42.8,28.9,31.7,19.6,15.3,65,41,26,30.11,30.02,5,0,5,0.00
2013-10-14,57.6,45.9,33.8,28.3,17.5,12.2,50,33,19,30.29,30.11,5,0,5,0.00
2013-10-15,62.4,39.3,23.4,27.3,16.4,11.5,64,42,19,30.29,30.08,6,0,6,0.00
2013-10-16,56.7,38.2,25.9,22.2,17.1,11.9,58,44,26,30.11,30.02,4,0,4,0.00
2013-10-17,48.9,39.4,28.4,33.1,21.5,16.1,64,49,37,30.17,30.05,4,0,4,0.00
2013-10-18,63.7,39.2,22.5,30.0,18.5,13.2,72,47,21,30.20,30.05,6,0,6,0.00
2013-10-19,69.3,45.5,25.3,26.5,16.2,6.4,59,34,16,30.08,29.93,6,0,7,0.00
2013-10-20,68.9,48.6,36.9,24.4,17.4,7.6,48,30,17,30.08,29.99,8,1,8,0.00
2013-10-21,72.9,46.1,30.2,31.9,22.9,18.6,68,44,19,30.17,30.08,6,1,6,0.00
2013-10-22,68.7,43.5,27.9,34.1,22.5,16.9,70,47,22,30.17,30.05,5,0,5,0.00
2013-10-23,66.6,38.3,26.8,33.8,18.7,13.7,68,48,17,30.14,30.05,4,0,4,0.00
2013-10-24,65.3,40.5,25.2,29.4,18.6,13.0,63,44,18,30.14,30.02,5,0,5,0.00
2013-10-25,66.0,41.6,25.2,26.8,19.2,14.5,67,44,18,30.20,30.08,5,0,5,0.00
2013-10-26,64.9,40.5,24.8,30.1,18.8,13.1,67,45,20,30.23,30.02,7,0,7,0.00
2013-10-27,56.5,42.3,25.9,25.9,16.9,8.9,59,37,25,30.02,29.67,10,1,10,0.00
2013-10-28,39.0,32.7,25.3,9.5,4.7,-0.5,32,30,29,29.96,29.91,11,2,11,0.00
2013-10-29,47.3,28.1,14.2,13.2,5.2,-2.0,54,38,24,29.96,29.85,6,0,6,0.00
2013-10-30,58.8,37.3,20.1,21.8,12.8,4.6,56,39,19,29.96,29.88,8,1,8,0.00
2013-10-31,56.8,41.6,31.3,33.7,21.8,8.1,74,48,27,30.05,29.91,12,1,12,0.04
2013-11-1,60.3,42.9,33.1,43.4,26.4,14.6,78,57,22,30.14,30.02,10,1,10,0.04
2013-11-2,61.3,40.6,29.1,37.8,22.5,14.4,72,51,19,30.02,29.61,17,3,17,0.04
2013-11-3,49.1,35.7,26.4,18.0,13.3,8.4,58,40,24,29.88,29.73,13,2,13,0.00
2013-11-4,45.5,30.9,21.7,18.8,11.9,6.3,61,46,28,30.02,29.85,10,2,10,0.00
2013-11-5,39.4,31.6,21.2,19.5,10.4,2.7,59,42,26,30.05,29.99,15,3,15,0.00
2013-11-6,54.1,40.9,29.3,29.2,18.0,10.9,67,42,20,30.20,29.99,10,1,10,0.00
2013-11-7,52.5,40.8,33.8,34.7,25.5,16.9,72,55,38,30.17,29.70,15,3,15,0.16
2013-11-8,48.4,39.8,34.0,24.6,21.6,17.9,56,48,37,29.99,29.82,12,4,12,0.00
2013-11-9,52.9,40.1,28.0,27.6,19.2,15.5,66,44,27,30.11,30.05,6,0,6,0.00
2013-11-10,54.5,38.7,31.6,29.1,22.8,18.8,73,54,33,30.08,30.02,6,0,6,0.00
2013-11-11,55.4,38.6,28.4,38.3,24.1,18.1,73,58,30,30.29,30.08,6,0,6,0.00
2013-11-12,45.9,36.5,28.9,31.9,25.4,21.1,73,64,50,30.23,30.17,5,0,5,0.00
2013-11-13,60.1,42.6,34.2,34.5,23.1,12.1,73,49,22,30.20,30.14,10,1,15,0.00
2013-11-14,47.3,34.9,26.4,25.9,16.2,11.3,61,47,30,30.14,29.79,6,1,6,0.00
2013-11-15,44.4,39.2,34.0,15.9,12.1,9.3,43,33,28,29.79,29.37,20,3,20,0.00
2013-11-16,45.3,34.8,30.0,30.6,18.4,12.3,70,52,33,29.58,29.26,14,4,14,0.08
2013-11-17,39.0,35.0,29.7,20.3,16.5,12.3,63,47,34,29.91,29.58,18,4,18,0.00
2013-11-18,52.9,39.3,30.6,18.8,13.8,9.4,46,35,23,29.91,29.70,15,5,15,0.00
2013-11-19,51.8,45.1,39.4,32.5,24.0,18.2,71,44,32,29.70,29.61,14,5,14,0.08
2013-11-20,43.5,35.9,24.8,30.7,11.5,-1.9,66,38,21,30.14,29.64,12,3,12,0.00
2013-11-21,38.7,20.9,10.6,7.2,-1.3,-7.0,55,38,21,30.44,30.14,6,1,6,0.00
2013-11-22,36.0,18.6,7.9,10.5,-0.2,-8.6,59,44,30,30.50,30.41,4,0,5,0.00
2013-11-23,36.5,19.1,8.1,11.9,2.0,-5.1,62,48,31,30.44,30.17,5,0,5,0.00
2013-11-24,39.9,22.7,10.8,16.6,5.8,-1.8,64,49,31,30.17,30.08,6,0,6,0.00
2013-11-25,43.3,27.5,15.8,22.2,10.3,5.3,68,50,30,30.26,30.14,6,0,6,0.00
2013-11-26,41.7,27.9,16.9,24.3,12.0,6.6,66,52,34,30.26,30.05,5,0,5,0.00
2013-11-27,45.0,27.6,18.7,22.8,12.4,8.3,68,54,31,30.05,29.99,5,0,5,0.00
2013-11-28,40.1,23.8,14.5,20.6,10.5,4.6,67,57,40,30.05,29.99,6,0,6,0.00
2013-11-29,41.9,26.6,14.2,23.3,12.8,5.2,69,57,36,30.11,30.02,6,0,6,0.00
2013-11-30,48.0,37.8,32.2,25.8,19.7,16.1,55,48,37,30.11,30.05,7,0,7,0.00
2013-12-1,41.7,39.9,38.7,33.8,30.5,20.6,77,70,44,30.05,29.64,15,4,15,0.35
2013-12-2,43.3,34.4,23.2,34.1,23.6,8.6,77,65,45,29.73,29.52,16,2,16,0.31
2013-12-3,23.2,15.0,5.4,8.6,-7.6,-18.1,53,35,30,30.02,29.73,0,0,0,0.00
2013-12-4,19.0,7.0,-1.7,-5.6,-17.3,-26.3,35,31,28,30.08,30.02,0,0,0,0.00
2013-12-5,14.2,2.4,-6.3,-7.3,-20.4,-30.3,37,33,29,30.05,29.99,0,0,0,0.00
2013-12-6,8.2,1.6,-4.7,-13.2,-19.1,-24.9,36,36,36,30.11,30.02,0,0,0,0.00
2013-12-7,9.1,-3.5,-11.7,-12.6,-23.8,-31.2,36,36,36,30.05,29.93,0,0,0,0.00
2013-12-8,5.0,-4.7,-13.0,-16.1,-24.8,-32.3,36,36,36,30.17,30.02,0,0,0,0.00
2013-12-9,18.9,6.3,-9.0,5.8,-12.7,-28.9,56,41,36,30.20,30.05,0,0,0,0.00
2013-12-10,36.9,24.2,14.9,9.0,4.5,1.2,57,43,30,30.20,30.02,6,0,6,0.00
2013-12-11,38.1,23.8,10.8,16.7,6.0,-2.2,59,47,30,30.23,30.14,8,1,8,0.00
2013-12-12,53.2,31.4,20.3,16.0,8.9,2.5,55,40,21,30.17,29.96,15,3,15,0.00
2013-12-13,48.7,32.9,24.8,21.9,16.3,10.7,65,51,29,30.20,29.96,8,1,8,0.00
2013-12-14,45.1,38.4,29.7,23.9,18.3,10.0,69,45,31,30.23,30.11,15,3,15,0.00
2013-12-15,57.9,43.7,29.8,21.2,14.1,8.5,43,30,22,30.17,30.08,18,3,18,0.00
2013-12-16,54.7,39.5,24.6,18.6,11.6,4.5,47,33,18,30.23,30.11,10,2,10,0.00
2013-12-17,61.9,40.3,24.4,17.4,10.8,6.6,48,31,16,30.23,29.85,15,3,15,0.00
2013-12-18,52.2,44.0,33.3,18.5,10.6,4.5,52,26,19,29.85,29.70,20,3,20,0.00
2013-12-19,34.2,26.7,17.8,23.3,9.9,-0.3,71,50,34,29.96,29.73,10,1,10,0.00
2013-12-20,35.4,23.2,12.2,19.9,7.6,0.6,70,53,25,29.91,29.52,10,2,11,0.00
2013-12-21,41.4,29.6,23.5,26.1,16.9,14.1,70,59,40,29.91,29.55,6,0,6,0.04
2013-12-22,40.6,32.5,28.2,24.4,18.7,14.9,65,57,42,30.11,29.88,5,0,5,0.00
2013-12-23,47.5,40.0,33.6,32.7,23.9,14.4,74,53,39,30.11,29.85,17,4,17,0.20
2013-12-24,45.9,33.6,21.9,17.3,10.5,4.2,54,38,28,30.32,30.08,11,2,11,0.00
2013-12-25,39.2,26.4,15.8,17.3,8.1,2.9,59,46,31,30.35,30.20,8,2,8,0.00
2013-12-26,50.9,33.6,24.3,20.0,13.4,8.1,56,44,28,30.23,30.11,8,1,8,0.00
2013-12-27,49.8,36.4,21.9,18.3,13.6,8.1,62,40,21,30.14,29.91,24,3,24,0.00
2013-12-28,46.6,37.0,24.4,15.3,9.4,4.5,42,32,22,30.23,29.93,13,2,15,0.00
2013-12-29,40.3,30.2,20.3,13.4,8.0,3.2,52,39,29,30.23,30.05,10,2,10,0.00
2013-12-30,48.2,37.2,26.2,22.3,16.2,11.3,56,43,29,30.11,29.96,11,2,11,0.00
2013-12-31,46.4,40.3,34.0,24.3,18.9,14.8,52,42,32,30.11,29.91,11,2,11,0.00
2014-1-1,49.8,34.4,25.3,20.7,11.7,5.3,52,40,24,30.23,30.11,8,1,8,0.00
2014-1-2,54.1,39.1,25.9,17.3,13.8,9.7,53,37,21,30.17,29.73,20,3,20,0.00